Flag for U.S.A. Weather past 2 weeks in Wright, Florida, U.S.A.

Now
85 °F

Sunny.


Feels Like: 86 °F
Forecast: 75 / 89 °F
Wind: 5 mph from Northeast

Location: Hurlburt Field

Current Time: Jul 29, 2014 at 11:51:34 AM

Latest Report: Jul 29, 2014 at 10:58 AM


Visibility: 10 mi

Pressure: 30.02 "Hg

Humidity: 43%

Dew point: 61 °F

Location of WrightLocation

Historic Weather in Wright — Graph

°F

Wright temperature yesterday

Maximum temperature yesterday: 92 °F (at 10:58 AM)
Minimum temperature yesterday: 81 °F (at 11:58 PM)
Average temperature yesterday: 85 °F

Past Weeks' High & Low Weather Summary

 TemperatureHumidityPressure
High92 °F (Jul 28, 10:58 AM)89% (Jul 18, 10:03 PM)30.09 "Hg (Jul 18, 10:03 PM)
Low65 °F (Jul 17, 5:58 AM)39% (Jul 16, 6:58 PM)29.87 "Hg (Jul 15, 6:58 PM)
Average81 °F71%30.00 "Hg
* Reported Jul 14 9:58 AM — Jul 29 9:58 AM, Wright, Weather by CustomWeather, © 2014

Note: Actual official high and low records may vary slightly from our data, if they occured in-between our weather recording intervals... More about our weather records

Advertising

Wright weather history for previous 24 hours

 ConditionsComfort  
Time TempWeatherWind HumidityBarometerVisibility
9:58 AM
Jul 29
84 °FSunny.6 mph47%30.01 "Hg10 mi
8:58 AM81 °FSunny.7 mph53%30.01 "Hg10 mi
7:58 AM78 °FSunny.9 mph62%30.01 "Hg10 mi
6:58 AM75 °FPartly sunny.9 mph69%29.98 "Hg10 mi
5:58 AM75 °FOvercast.10 mph70%29.96 "Hg10 mi
4:58 AM74 °FPassing clouds.9 mph77%29.93 "Hg10 mi
3:58 AM75 °FPassing clouds.8 mph78%29.93 "Hg10 mi
2:58 AM77 °FClear.8 mph73%29.94 "Hg10 mi
1:58 AM79 °FPassing clouds.9 mph74%29.94 "Hg10 mi
12:58 AM79 °FPassing clouds.7 mph76%29.95 "Hg10 mi
11:58 PM
Jul 28
81 °FClear.6 mph75%29.95 "Hg10 mi
10:58 PM81 °FThundershowers. Mostly cloudy.3 mph72%29.96 "Hg10 mi
9:58 PM81 °FPassing clouds.5 mph72%29.96 "Hg10 mi
8:58 PM81 °FPassing clouds.6 mph64%29.96 "Hg10 mi
7:58 PM81 °FLight rain. Passing clouds.1 mph65%29.95 "Hg10 mi
6:58 PM85 °FPassing clouds.9 mph69%29.93 "Hg10 mi
5:58 PM84 °FPassing clouds.9 mph58%29.92 "Hg10 mi
4:58 PM87 °FSunny.13 mph66%29.93 "Hg10 mi
3:58 PM88 °FSunny.14 mph67%29.94 "Hg10 mi
2:58 PM89 °FSunny.17 mph64%29.95 "Hg10 mi
1:58 PM89 °FSunny.12 mph63%29.97 "Hg10 mi
12:58 PM90 °FPassing clouds.9 mph61%29.99 "Hg10 mi
11:58 AM88 °FScattered clouds.15 mph66%30.01 "Hg10 mi
Weather by CustomWeather, © 2014

See weather overviewHow to use our weather pages